Home   Weather   Fairfield   Past weeks
Flag for USA

Past Weather in Fairfield, Minnesota, USA — Yesterday and Last 2 Weeks

Now
81 °F

Scattered clouds.


Feels Like: 84 °F
Forecast: 72 / 61 °F
Wind: 13 mph from South

Location: Fergus Falls Weather Reporting System

Current Time: Jul 13, 2020 at 7:06:44 pm

Latest Report: Jul 13, 2020 at 6:16 pm


Visibility: 10 mi

Pressure: 29.63 "Hg

Humidity: 70%

Dew Point: 70 °F

Location of FairfieldLocation

Past Weather in Fairfield — Graph

°F

Fairfield Temperature Yesterday

Maximum temperature yesterday: 81 °F (at 3:56 pm)
Minimum temperature yesterday: 61 °F (at 5:36 am)
Average temperature yesterday: 72 °F

High & Low Weather Summary for the Past Weeks

 TemperatureHumidityPressure
High88 °F (Jun 30, 5:36 pm)100% (Jun 29, 4:35 am)30.06 "Hg (Jun 29, 4:35 am)
Low59 °F (Jul 10, 5:55 am)21% (Jun 28, 9:58 pm)29.51 "Hg (Jun 29, 8:15 am)
Average75 °F74%29.86 "Hg
* Reported Jun 28 5:15 pm — Jul 13 5:56 pm, Fairfield. Weather by CustomWeather, © 2020

Note: Actual official high and low records may vary slightly from our data, if they occured in-between our weather recording intervals... More about our weather records

Fairfield Weather History for the Previous 24 Hours

Scroll right to see more
 ConditionsComfort  
Time TempWeatherWind HumidityBarometerVisibility
5:56 pm
Mon, Jul 13
81 °FBroken clouds.17 mph70%29.63 "Hg10 mi
5:36 pm81 °FPartly sunny.12 mph70%29.64 "Hg10 mi
4:56 pm81 °FBroken clouds.18 mph66%29.64 "Hg10 mi
4:36 pm81 °FPartly sunny.22 mph62%29.65 "Hg10 mi
4:16 pm81 °FOvercast.20 mph62%29.66 "Hg10 mi
3:56 pm81 °FOvercast.20 mph62%29.66 "Hg10 mi
3:36 pm81 °FScattered clouds.21 mph62%29.66 "Hg10 mi
3:15 pm82 °FScattered clouds.29 mph58%29.66 "Hg10 mi
2:36 pm82 °FScattered clouds.22 mph58%29.67 "Hg10 mi
2:16 pm82 °FScattered clouds.22 mph55%29.66 "Hg10 mi
1:56 pm82 °FSunny.24 mph55%29.66 "Hg10 mi
1:36 pm82 °FSunny.24 mph55%29.64 "Hg10 mi
1:16 pm81 °FSunny.28 mph58%29.65 "Hg10 mi
12:56 pm82 °FSunny.21 mph58%29.67 "Hg10 mi
12:36 pm81 °FSunny.24 mph58%29.68 "Hg10 mi
12:16 pm81 °FSunny.22 mph58%29.69 "Hg10 mi
11:56 am81 °FSunny.23 mph58%29.70 "Hg10 mi
11:36 am81 °FSunny.24 mph58%29.70 "Hg10 mi
11:16 am79 °FSunny.21 mph61%29.71 "Hg10 mi
10:56 am79 °FSunny.24 mph61%29.73 "Hg10 mi
10:36 am77 °FSunny.17 mph65%29.75 "Hg10 mi
10:16 am75 °FSunny.18 mph69%29.77 "Hg10 mi
9:56 am75 °FSunny.16 mph65%29.77 "Hg10 mi
9:36 am73 °FSunny.20 mph69%29.78 "Hg10 mi
9:16 am73 °FSunny.15 mph69%29.78 "Hg10 mi
8:56 am73 °FSunny.17 mph69%29.79 "Hg10 mi
8:36 am72 °FSunny.15 mph73%29.79 "Hg10 mi
8:16 am72 °FSunny.14 mph73%29.81 "Hg10 mi
7:56 am72 °FSunny.14 mph73%29.82 "Hg10 mi
7:36 am70 °FSunny.10 mph78%29.83 "Hg10 mi
7:16 am70 °FScattered clouds.14 mph73%29.83 "Hg10 mi
6:56 am70 °FScattered clouds.13 mph73%29.83 "Hg10 mi
6:36 am68 °FSunny.12 mph78%29.83 "Hg10 mi
6:16 am66 °FSunny.10 mph83%29.84 "Hg10 mi
5:56 am66 °FSunny.10 mph83%29.83 "Hg10 mi
5:36 am66 °FClear.9 mph83%29.84 "Hg10 mi
5:16 am66 °FClear.9 mph83%29.84 "Hg10 mi
4:56 am66 °FClear.10 mph83%29.84 "Hg10 mi
4:36 am66 °FClear.10 mph83%29.83 "Hg10 mi
4:16 am66 °FClear.12 mph83%29.83 "Hg10 mi
3:56 am66 °FClear.12 mph88%29.83 "Hg10 mi
3:36 am66 °FClear.10 mph88%29.85 "Hg10 mi
3:16 am68 °FClear.10 mph83%29.85 "Hg10 mi
2:56 am68 °FClear.9 mph83%29.84 "Hg10 mi
2:36 am68 °FClear.9 mph83%29.85 "Hg10 mi
2:16 am68 °FClear.9 mph83%29.85 "Hg10 mi
1:56 am70 °FClear.12 mph73%29.85 "Hg10 mi
1:36 am70 °FClear.10 mph73%29.85 "Hg10 mi
1:16 am72 °FClear.12 mph73%29.85 "Hg10 mi
12:56 am72 °FClear.12 mph69%29.85 "Hg10 mi
12:36 am72 °FClear.9 mph73%29.85 "Hg10 mi
12:16 am72 °FClear.8 mph73%29.86 "Hg10 mi
11:56 pm
Sun, Jul 12
70 °FClear.8 mph78%29.85 "Hg10 mi
11:36 pm72 °FClear.9 mph73%29.86 "Hg10 mi
11:16 pm72 °FClear.8 mph73%29.86 "Hg10 mi
10:56 pm72 °FClear.7 mph73%29.86 "Hg10 mi
10:36 pm72 °FClear.6 mph73%29.86 "Hg10 mi
10:16 pm73 °FClear.6 mph69%29.86 "Hg10 mi
9:56 pm73 °FClear.6 mph69%29.86 "Hg10 mi
9:36 pm75 °FClear.5 mph65%29.86 "Hg10 mi
9:16 pm75 °FClear.5 mph65%29.86 "Hg10 mi
8:36 pm77 °FSunny.5 mph61%29.86 "Hg10 mi
7:56 pm79 °FSunny.7 mph58%29.87 "Hg10 mi
7:16 pm81 °FSunny.7 mph51%29.87 "Hg10 mi
Weather by CustomWeather, © 2020

See weather overview